PBO Station Position Time Series. Reference Frame : NAM14
Format Version,1.1.0
4-character ID,CTMS
Station name,CTMS_SCGN_CS1999
Begin Date, 1999-02-24
End Date, 2019-10-07
Release Date, 2019-10-08
Reference position, 34.1241006034 North Latitude, -116.3704264390 East Longitude, 966.47417 meters elevation,
Date, North (mm), East (mm), Vertical (mm), North Std. Deviation (mm), East Std. Deviation (mm),              Vertical Std. Deviation (mm), Quality,
1999-02-24,0.00, 0.00, 0.00, 2.09, 1.82, 7.87, repro,
1999-02-25,0.13, -0.70, 8.52, 2.09, 1.81, 7.96, repro,
1999-02-26,-0.12, -0.64, 8.50, 2.15, 1.83, 8.15, repro,
1999-02-27,-1.18, 0.59, 5.62, 2.14, 1.82, 8.13, repro,
1999-02-28,-0.63, 0.42, 6.08, 2.08, 1.80, 7.89, repro,
1999-03-01,-1.15, -0.48, -0.66, 2.17, 1.84, 8.25, repro,
1999-03-02,0.07, 1.01, -0.78, 2.15, 1.83, 8.21, repro,
1999-03-03,-1.17, 1.96, 1.79, 2.11, 1.85, 8.06, repro,
1999-03-04,-1.24, -0.85, 6.22, 2.19, 1.85, 8.49, repro,
1999-03-05,-1.53, -0.98, 1.12, 2.09, 1.80, 7.93, repro,
1999-03-06,-2.98, 0.10, -4.20, 2.14, 1.89, 8.19, repro,
1999-03-07,-2.58, -1.27, -7.26, 2.11, 1.83, 8.00, repro,
1999-03-08,-2.43, 0.11, 0.74, 2.08, 1.81, 7.93, repro,
1999-03-09,0.83, -1.19, -2.72, 2.10, 1.83, 7.99, repro,
1999-03-10,-0.38, -0.06, -1.01, 2.10, 1.87, 8.06, repro,
1999-03-11,-0.35, 0.04, 7.76, 2.09, 1.81, 7.89, repro,
1999-03-12,-0.65, 0.52, 3.12, 2.20, 1.84, 8.14, repro,
1999-03-13,-0.51, 1.08, 6.16, 2.22, 1.91, 8.50, repro,
1999-03-14,-0.27, 0.47, 3.43, 2.11, 1.81, 7.95, repro,
1999-03-15,-2.90, 1.02, 11.24, 2.26, 1.96, 8.62, repro,
1999-03-16,-0.09, 1.69, 7.54, 2.32, 2.00, 8.82, repro,
1999-03-17,-0.26, 1.20, -3.60, 2.20, 1.89, 8.34, repro,
1999-03-18,0.27, 1.67, 1.40, 2.27, 1.98, 8.55, repro,
1999-03-19,-0.02, 1.96, 1.82, 2.37, 2.02, 9.10, repro,
1999-03-20,-2.41, -0.15, 6.18, 2.30, 2.04, 8.91, repro,
1999-03-21,0.53, -0.57, 9.69, 2.15, 1.93, 8.33, repro,
1999-03-22,1.63, 1.10, 10.35, 2.50, 2.24, 9.99, repro,
1999-03-23,1.15, 2.82, 8.55, 2.28, 2.08, 8.85, repro,
1999-03-24,0.31, 0.22, 7.44, 2.52, 2.20, 9.93, repro,
1999-03-25,1.47, 2.56, 8.37, 2.52, 2.18, 9.80, repro,
1999-03-26,-1.05, -0.38, 3.41, 2.37, 2.12, 9.26, repro,
1999-03-27,1.47, 0.23, -3.38, 2.13, 1.87, 8.19, repro,
1999-03-28,3.66, 0.85, 8.79, 2.78, 2.70, 11.32, repro,
1999-03-29,-0.71, 0.50, -1.96, 2.36, 2.14, 9.37, repro,
1999-03-30,1.25, 2.80, -4.29, 2.34, 1.98, 9.09, repro,
1999-03-31,-4.12, -0.75, -3.07, 2.44, 2.06, 9.39, repro,
1999-04-01,1.36, 0.88, 9.66, 2.27, 1.93, 8.68, repro,
1999-04-02,-2.02, -0.84, -1.49, 2.29, 1.89, 8.58, repro,
1999-04-03,-2.07, 1.45, 2.72, 2.17, 1.85, 8.18, repro,
1999-04-04,0.27, 0.09, -1.24, 2.17, 1.84, 8.16, repro,
1999-04-05,0.79, 1.95, -6.81, 2.39, 2.01, 9.04, repro,
1999-04-06,1.38, 1.03, -3.13, 2.21, 1.91, 8.40, repro,
1999-04-07,0.43, -1.01, -3.29, 2.13, 1.86, 8.14, repro,
1999-04-08,1.93, 0.36, 8.61, 2.14, 1.87, 8.18, repro,
1999-04-09,0.89, 3.15, 7.10, 2.18, 1.93, 8.37, repro,
1999-04-10,2.11, 1.42, 4.86, 2.16, 1.87, 8.18, repro,
1999-04-11,2.80, 1.01, 9.15, 2.13, 1.85, 8.06, repro,
1999-04-12,3.60, 1.37, 11.75, 2.09, 1.83, 7.98, repro,
1999-04-13,5.00, 0.89, 8.73, 2.12, 1.85, 8.09, repro,
1999-04-14,2.02, 1.86, 1.35, 2.13, 1.84, 8.09, repro,
1999-04-15,1.75, 1.09, 0.07, 2.13, 1.85, 8.13, repro,
1999-04-16,1.91, 0.79, 7.23, 2.14, 1.91, 8.28, repro,
1999-04-17,2.87, 0.21, 8.28, 2.17, 1.85, 8.35, repro,
1999-04-18,3.96, 1.95, 6.54, 2.09, 1.82, 8.01, repro,
1999-04-19,2.37, 1.47, 8.74, 2.10, 1.83, 8.08, repro,
1999-04-20,1.81, 1.76, 9.67, 2.17, 1.86, 8.34, repro,
1999-04-21,1.80, 0.04, 21.86, 2.16, 1.85, 8.40, repro,
1999-04-22,2.23, -0.30, 12.11, 2.18, 1.86, 8.34, repro,
1999-04-23,2.08, 1.03, 19.88, 2.14, 1.86, 8.13, repro,
1999-04-24,2.43, 1.60, 17.13, 2.11, 1.82, 7.98, repro,
1999-04-25,5.41, 1.02, 9.06, 2.18, 1.88, 8.40, repro,
1999-04-26,3.25, 2.68, 9.40, 2.13, 1.85, 8.16, repro,
1999-04-27,3.29, 0.06, 16.97, 2.22, 1.90, 8.52, repro,
1999-04-28,3.31, 0.17, 7.27, 2.12, 1.85, 8.15, repro,
1999-04-29,2.01, -0.81, 14.46, 2.16, 1.92, 8.28, repro,
1999-04-30,1.27, 1.55, 13.57, 2.17, 1.95, 8.36, repro,
1999-05-01,1.80, 0.75, 14.13, 2.18, 1.94, 8.33, repro,
1999-05-02,2.89, 0.33, 22.51, 2.16, 1.92, 8.37, repro,
1999-05-03,0.94, 3.20, 21.35, 2.16, 1.95, 8.43, repro,
1999-05-04,0.27, 2.61, 21.04, 2.19, 1.98, 8.45, repro,
1999-05-05,2.41, 1.14, 21.91, 2.25, 2.03, 8.60, repro,
1999-05-06,2.95, 1.37, 15.69, 2.23, 1.96, 8.51, repro,
1999-05-07,2.42, 1.48, 12.56, 2.12, 1.85, 8.10, repro,
1999-05-08,3.14, 0.13, 21.32, 2.19, 1.98, 8.45, repro,
1999-05-09,2.61, 1.78, 14.27, 2.18, 1.92, 8.27, repro,
1999-05-10,0.87, 0.64, 9.00, 2.15, 1.84, 8.17, repro,
1999-05-11,2.60, 1.58, 9.82, 2.17, 1.93, 8.34, repro,
1999-05-12,1.96, 1.68, 7.96, 2.20, 2.00, 8.52, repro,
1999-05-13,0.25, 3.14, 11.48, 2.30, 2.03, 9.32, repro,
1999-05-14,-1.53, 2.22, 10.06, 2.15, 1.91, 8.27, repro,
1999-05-15,-0.82, 0.36, 13.32, 2.16, 1.93, 8.29, repro,
1999-05-16,-2.90, 1.47, 13.25, 2.14, 1.92, 8.22, repro,
1999-05-17,-1.68, 0.87, 12.93, 2.20, 2.01, 8.56, repro,
1999-05-18,-1.17, 0.89, 21.31, 2.40, 2.10, 9.64, repro,
1999-05-19,-1.10, 0.47, 24.91, 2.14, 1.87, 8.39, repro,
1999-05-20,-2.53, 0.05, 14.28, 2.16, 1.91, 8.18, repro,
1999-05-21,-3.01, 0.13, 20.53, 2.16, 1.92, 8.28, repro,
1999-05-22,-2.52, 1.29, 19.59, 2.15, 1.91, 8.25, repro,
1999-05-23,-2.04, 1.77, 13.70, 2.14, 1.91, 8.30, repro,
1999-05-24,-2.09, 0.95, 8.64, 2.26, 2.00, 8.72, repro,
1999-05-25,-0.38, 0.67, 14.93, 2.10, 1.83, 8.02, repro,
1999-05-26,-3.49, 1.73, 15.96, 2.15, 1.96, 8.26, repro,
1999-05-27,-0.06, 0.60, 21.05, 2.11, 1.84, 8.09, repro,
1999-05-28,-2.70, 0.97, 27.46, 2.19, 1.87, 8.52, repro,
1999-05-29,-1.13, 0.03, 16.46, 2.12, 1.84, 8.12, repro,
1999-05-30,-1.55, 0.59, 10.73, 2.11, 1.82, 8.02, repro,
1999-05-31,-3.24, 0.13, 9.04, 2.10, 1.82, 7.99, repro,
1999-06-01,-0.69, 1.53, 18.09, 2.19, 1.85, 8.47, repro,
1999-06-02,-2.23, 2.95, 14.40, 2.13, 1.85, 8.12, repro,
1999-06-03,-1.60, -1.06, 26.03, 2.21, 1.91, 8.41, repro,
1999-06-04,-0.28, -0.13, 16.96, 2.12, 1.84, 8.13, repro,
1999-06-05,-0.68, 1.06, 23.96, 2.14, 1.85, 8.12, repro,
1999-06-06,-2.71, 0.51, 18.94, 2.23, 1.95, 8.45, repro,
1999-06-07,-1.97, 2.33, 20.66, 2.16, 1.92, 8.35, repro,
1999-06-08,-2.56, 0.77, 21.00, 2.11, 1.86, 8.18, repro,
1999-06-09,-3.40, -0.03, 19.54, 2.11, 1.87, 8.17, repro,
1999-06-10,-0.98, 0.07, 22.49, 2.12, 1.85, 8.16, repro,
1999-06-11,-1.54, -0.54, 11.99, 2.16, 1.88, 8.43, repro,
1999-06-12,-1.50, -0.82, 19.16, 2.10, 1.85, 8.13, repro,
1999-06-13,-1.61, 0.07, 14.81, 2.13, 1.88, 8.25, repro,
1999-06-14,-2.25, 0.46, 16.20, 2.30, 1.89, 8.87, repro,
1999-06-15,-3.65, 0.23, 17.77, 2.14, 1.84, 8.15, repro,
1999-06-16,-1.96, 1.55, 12.30, 2.10, 1.82, 8.04, repro,
1999-06-17,-0.38, -0.55, 14.27, 2.13, 1.86, 8.23, repro,
1999-06-18,-1.30, -0.75, 17.02, 2.08, 1.82, 8.02, repro,
1999-06-19,-1.70, -0.07, 17.26, 2.13, 1.84, 8.13, repro,
1999-06-20,-3.57, -0.86, 23.75, 2.09, 1.80, 7.99, repro,
1999-06-21,-4.03, -1.72, 18.06, 2.07, 1.78, 7.91, repro,
1999-06-22,-3.34, -0.74, 26.09, 2.21, 1.84, 8.39, repro,
1999-06-23,-2.91, -0.41, 19.92, 2.10, 1.82, 8.08, repro,
1999-06-24,-2.34, 0.85, 18.48, 2.14, 1.83, 8.27, repro,
1999-06-25,-0.94, -0.95, 20.61, 2.23, 1.91, 8.47, repro,
1999-06-26,-1.38, 0.02, 16.13, 2.26, 1.89, 8.55, repro,
1999-06-27,-1.84, -0.39, 23.62, 2.24, 1.85, 8.62, repro,
1999-06-28,-2.81, -1.63, 17.30, 2.13, 1.85, 8.19, repro,
1999-06-29,-10.10, -0.12, 39.93, 6.69, 5.07, 25.08, repro,
1999-06-30,-1.72, -0.43, 25.53, 2.28, 1.92, 8.78, repro,
1999-07-01,-3.16, 0.96, 26.49, 2.39, 2.00, 9.37, repro,
1999-07-02,-3.34, 0.69, 30.50, 2.20, 1.85, 8.59, repro,
1999-07-03,-2.70, -1.43, 31.14, 2.25, 1.87, 8.73, repro,
1999-07-04,-1.67, -0.22, 26.50, 2.17, 1.84, 8.38, repro,
1999-07-05,-2.57, -0.94, 21.39, 2.15, 1.82, 8.29, repro,
1999-07-06,-2.34, -1.87, 27.55, 2.16, 1.90, 8.45, repro,
1999-07-07,-2.99, -0.67, 25.30, 2.44, 1.99, 9.09, repro,
1999-07-09,-3.65, 1.88, 28.05, 2.20, 1.85, 8.38, repro,
1999-07-10,-1.01, -0.32, 26.52, 2.24, 1.89, 8.55, repro,
1999-07-11,-0.79, -1.68, 7.58, 4.10, 3.51, 15.63, repro,
1999-07-14,-6.37, 1.27, 17.07, 4.51, 3.71, 16.65, repro,
1999-07-15,-5.24, -2.40, 17.94, 2.16, 1.87, 8.41, repro,
1999-07-16,-4.90, 1.42, 19.23, 2.24, 1.91, 8.84, repro,
1999-07-17,-5.20, -1.19, 16.71, 2.08, 1.80, 8.06, repro,
1999-07-18,-3.57, -0.13, 22.20, 2.25, 1.88, 8.76, repro,
1999-07-19,-4.63, 0.48, 19.60, 2.23, 1.85, 8.60, repro,
1999-07-20,-1.36, -1.22, 20.53, 2.24, 1.90, 8.71, repro,
1999-07-21,-4.65, -0.64, 17.52, 2.13, 1.86, 8.23, repro,
1999-07-22,-4.02, 0.35, 20.90, 2.42, 2.01, 9.48, repro,
1999-07-23,-4.23, -0.07, 15.03, 2.23, 1.84, 8.63, repro,
1999-07-24,-3.30, -0.08, 12.71, 2.37, 2.01, 9.07, repro,
1999-07-25,-2.56, 0.17, 21.81, 2.21, 1.84, 8.44, repro,
1999-07-26,-4.66, 1.69, 23.25, 2.26, 1.88, 8.56, repro,
1999-07-27,-2.45, 1.71, 26.45, 2.22, 1.87, 8.56, repro,
1999-07-28,-2.62, 1.17, 25.94, 2.18, 1.89, 8.34, repro,
1999-07-29,-5.47, -0.01, 16.54, 2.16, 1.87, 8.25, repro,
1999-07-30,-1.77, -0.15, 33.98, 2.20, 1.92, 8.46, repro,
1999-07-31,-4.47, -0.94, 19.79, 2.08, 1.81, 8.00, repro,
1999-08-01,-3.84, 0.86, 13.37, 2.10, 1.79, 7.93, repro,
1999-08-02,-2.08, 2.35, 12.23, 2.12, 1.81, 8.05, repro,
1999-08-03,-4.55, 1.63, 11.61, 2.16, 1.85, 8.14, repro,
1999-08-04,-5.02, 1.71, 8.24, 2.26, 1.93, 8.85, repro,
1999-08-05,-3.39, 1.50, 12.48, 2.30, 1.97, 8.67, repro,
1999-08-06,-1.35, 1.40, 21.50, 2.15, 1.83, 8.11, repro,
1999-08-07,-2.47, -0.40, 21.51, 2.11, 1.80, 7.98, repro,
1999-08-08,-4.76, 2.05, 3.82, 4.78, 3.99, 17.95, repro,
1999-08-10,-4.62, 1.59, 12.72, 2.35, 2.13, 8.97, repro,
1999-08-11,-5.11, 1.50, 21.76, 2.18, 1.90, 8.31, repro,
1999-08-12,-3.12, 0.94, 15.75, 2.10, 1.79, 8.04, repro,
1999-08-13,-3.09, 1.36, 15.45, 2.08, 1.79, 7.99, repro,
1999-08-14,-2.10, 1.74, 15.96, 2.10, 1.80, 8.05, repro,
1999-08-15,-4.02, 1.23, 17.36, 2.24, 1.85, 8.41, repro,
1999-08-16,-0.78, 1.31, 14.29, 2.09, 1.80, 7.95, repro,
1999-08-17,-3.28, 2.30, 18.28, 2.17, 1.89, 8.26, repro,
1999-08-18,-4.77, -0.07, 13.34, 2.12, 1.81, 8.04, repro,
1999-08-19,-2.32, 0.71, 27.98, 2.14, 1.83, 8.15, repro,
1999-08-20,-2.38, -3.58, 23.93, 2.17, 1.86, 8.24, repro,
1999-08-21,-2.44, 1.90, 20.69, 2.18, 1.81, 8.27, repro,
1999-08-22,-2.97, 0.99, 11.40, 2.11, 1.86, 8.15, repro,
1999-08-23,-1.96, 1.38, 22.90, 2.25, 1.85, 8.43, repro,
1999-08-24,-2.58, 2.42, 17.04, 2.19, 1.89, 8.40, repro,
1999-08-25,-3.61, 1.46, 26.95, 2.42, 1.99, 8.81, repro,
1999-08-26,-5.58, -1.35, 32.48, 2.34, 1.90, 8.81, repro,
1999-08-27,-3.27, 2.34, 23.66, 2.20, 1.92, 8.30, repro,
1999-08-28,-3.39, 3.56, 26.11, 2.28, 2.08, 8.81, repro,
1999-08-29,-1.75, 1.89, 27.65, 2.34, 2.14, 10.64, repro,
1999-08-30,-4.29, 4.00, 33.57, 2.26, 1.97, 8.57, repro,
1999-08-31,-2.34, 0.35, 21.97, 2.22, 1.94, 8.38, repro,
1999-09-01,-0.60, 0.82, 20.08, 2.37, 1.97, 8.89, repro,
1999-09-02,0.15, 1.93, 20.29, 2.18, 1.89, 8.28, repro,
1999-09-03,-4.15, 0.45, 22.96, 2.26, 1.93, 8.55, repro,
1999-09-04,-3.32, 1.39, 19.61, 2.27, 1.92, 8.55, repro,
1999-09-05,-2.19, 1.91, 18.86, 2.16, 1.86, 8.15, repro,
1999-09-06,-4.38, 0.64, 24.22, 2.28, 1.92, 8.50, repro,
1999-09-07,-3.25, 1.14, 19.00, 2.57, 1.99, 9.73, repro,
1999-09-08,-4.02, 2.01, 18.14, 2.48, 1.99, 9.47, repro,
1999-09-09,-3.27, 3.18, 13.76, 2.29, 1.89, 8.51, repro,
1999-09-10,-4.17, 1.29, 24.42, 2.26, 1.92, 8.41, repro,
1999-09-11,-0.24, 2.64, 21.06, 2.39, 1.97, 8.84, repro,
1999-09-12,-1.33, 0.36, 21.82, 2.27, 1.87, 8.39, repro,
1999-09-13,-3.00, 1.40, 16.91, 2.18, 1.80, 8.16, repro,
1999-09-14,-0.72, 1.59, 18.83, 2.24, 1.90, 8.33, repro,
1999-09-15,-3.18, 1.62, 21.22, 2.27, 1.87, 8.43, repro,
1999-09-16,-5.43, -0.26, 27.75, 2.31, 1.92, 8.67, repro,
1999-09-17,-4.52, 3.18, 36.64, 2.38, 1.97, 8.85, repro,
1999-09-18,-0.27, 6.36, 3.02, 2.47, 1.98, 9.37, repro,
1999-09-19,-3.99, 0.82, 23.22, 2.23, 1.94, 8.46, repro,
1999-09-20,-2.81, 1.55, 13.98, 2.28, 1.93, 8.43, repro,
1999-09-21,-3.10, 2.44, 10.73, 2.27, 1.87, 8.46, repro,
1999-09-22,-3.25, 1.83, 14.84, 2.34, 2.00, 8.87, repro,
1999-09-23,-3.30, 1.16, 17.84, 2.29, 1.96, 8.58, repro,
1999-09-24,-4.17, 1.97, 23.59, 2.33, 1.98, 8.72, repro,
1999-09-25,-3.13, 2.31, 20.89, 2.19, 1.91, 8.33, repro,
1999-09-26,-3.15, 2.69, 22.75, 2.60, 2.22, 10.22, repro,
1999-09-27,-3.51, 1.00, 24.07, 2.37, 2.06, 9.20, repro,
1999-09-28,-1.83, 1.56, 17.14, 2.52, 2.21, 9.50, repro,
1999-09-29,-2.21, 2.06, 12.60, 2.71, 2.45, 10.19, repro,
1999-09-30,-3.42, 2.33, 18.00, 2.80, 2.45, 10.56, repro,
1999-10-01,-2.89, 1.13, 21.29, 2.84, 2.53, 10.71, repro,
1999-10-02,-2.54, 1.68, 22.42, 2.34, 2.07, 8.95, repro,
1999-10-03,-3.60, 1.84, 19.74, 2.65, 2.27, 9.58, repro,
1999-10-04,-2.18, 1.71, 16.90, 2.31, 2.03, 8.64, repro,
1999-10-05,-2.68, 0.94, 24.26, 2.37, 2.01, 8.70, repro,
1999-10-06,-2.11, 2.23, 13.81, 2.36, 2.05, 8.91, repro,
1999-10-07,-2.69, 2.96, 24.05, 2.42, 2.00, 9.04, repro,
1999-10-08,-2.35, 1.97, 24.18, 2.46, 2.13, 8.99, repro,
1999-10-09,-1.46, 1.46, 21.02, 2.32, 1.97, 8.66, repro,
1999-10-10,-3.67, 3.11, 22.67, 2.39, 2.10, 8.88, repro,
1999-10-11,-4.18, 1.95, 20.06, 2.42, 2.06, 8.91, repro,
1999-10-12,-4.28, 1.48, 21.37, 2.33, 1.99, 8.63, repro,
1999-10-13,-4.12, 1.90, 17.34, 2.54, 2.12, 9.52, repro,
1999-10-14,-3.48, 1.18, 18.91, 2.34, 2.06, 8.73, repro,
1999-10-15,-2.86, 1.08, 23.67, 2.37, 2.09, 8.92, repro,
1999-10-16,-17.37, 9.64, 22.07, 2.45, 1.98, 8.84, repro,
1999-10-17,5.66, 15.01, 27.25, 2.28, 1.96, 8.75, repro,
1999-10-18,6.27, 14.21, 26.71, 2.44, 2.03, 9.08, repro,
1999-10-19,8.14, 14.26, 26.80, 2.27, 1.84, 8.78, repro,
1999-10-20,8.69, 14.93, 24.12, 2.10, 1.87, 8.15, repro,
1999-10-21,9.10, 13.46, 24.71, 2.32, 2.08, 9.18, repro,
1999-10-22,8.20, 14.33, 29.33, 2.35, 2.21, 9.54, repro,
1999-10-23,10.22, 15.61, 23.50, 2.12, 1.89, 8.21, repro,
1999-10-24,10.03, 15.67, 25.83, 2.24, 1.97, 8.75, repro,
1999-10-25,11.04, 15.45, 29.85, 2.15, 1.92, 8.26, repro,
1999-10-26,10.69, 14.67, 34.63, 2.06, 1.80, 8.08, repro,
1999-10-27,9.36, 15.77, 31.84, 2.18, 1.92, 8.54, repro,
1999-10-28,10.24, 15.23, 33.78, 2.22, 1.93, 8.45, repro,
1999-10-29,11.93, 15.84, 28.56, 2.28, 1.99, 8.65, repro,
1999-10-30,11.76, 15.99, 26.38, 2.10, 1.83, 8.10, repro,
1999-10-31,11.43, 15.41, 30.38, 2.36, 1.94, 8.92, repro,
1999-11-01,11.19, 16.16, 23.99, 2.53, 2.07, 9.71, repro,
1999-11-02,11.95, 15.85, 29.94, 2.35, 2.00, 9.12, repro,
1999-11-03,12.31, 15.54, 32.19, 2.43, 1.99, 9.37, repro,
1999-11-04,11.74, 14.83, 28.79, 2.21, 1.87, 8.46, repro,
1999-11-05,12.47, 15.30, 31.04, 2.20, 1.86, 8.46, repro,
1999-11-06,11.21, 15.60, 22.49, 2.17, 1.83, 8.26, repro,
1999-11-07,11.33, 16.58, 25.28, 2.21, 1.88, 8.43, repro,
1999-11-08,11.57, 15.36, 40.11, 2.18, 1.85, 8.45, repro,
1999-11-09,12.19, 14.68, 36.72, 2.20, 1.88, 8.58, repro,
1999-11-10,11.05, 15.90, 35.11, 2.14, 1.81, 8.34, repro,
1999-11-11,12.25, 15.52, 28.77, 2.07, 1.80, 8.04, repro,
1999-11-12,12.14, 15.79, 28.75, 2.14, 1.85, 8.13, repro,
1999-11-13,12.73, 14.78, 31.51, 2.20, 1.88, 8.43, repro,
1999-11-14,13.00, 14.19, 33.51, 2.11, 1.84, 8.23, repro,
1999-11-15,13.14, 15.94, 30.43, 2.15, 1.83, 8.41, repro,
1999-11-16,12.81, 15.41, 29.40, 2.15, 1.91, 8.32, repro,
1999-11-17,12.04, 14.01, 38.82, 2.09, 1.85, 8.18, repro,
1999-11-18,12.53, 15.55, 33.76, 2.15, 1.85, 8.32, repro,
1999-11-19,12.11, 15.53, 28.39, 2.23, 1.96, 8.54, repro,
1999-11-20,13.42, 15.61, 29.39, 2.18, 1.92, 8.27, repro,
1999-11-21,10.18, 15.59, 39.74, 2.48, 2.12, 9.64, repro,
1999-11-22,14.00, 15.38, 38.63, 2.37, 2.07, 8.96, repro,
1999-11-23,13.01, 16.20, 30.90, 2.50, 2.31, 9.98, repro,
1999-11-24,13.85, 16.44, 27.08, 2.62, 2.49, 10.74, repro,
1999-11-25,14.97, 16.90, 31.36, 2.48, 2.22, 9.69, repro,
1999-11-26,14.06, 16.37, 31.42, 2.21, 2.18, 8.78, repro,
1999-11-27,13.19, 16.17, 34.00, 2.12, 1.92, 8.25, repro,
1999-11-28,13.50, 16.22, 23.02, 2.08, 1.90, 8.19, repro,
1999-11-29,13.65, 17.32, 25.50, 2.16, 1.95, 8.45, repro,
1999-11-30,15.27, 19.12, 25.29, 2.27, 1.93, 8.74, repro,
1999-12-01,14.65, 16.89, 35.09, 2.26, 2.02, 8.85, repro,
1999-12-02,13.79, 16.95, 34.70, 2.02, 1.80, 7.93, repro,
1999-12-03,12.82, 18.53, 41.57, 2.37, 2.24, 9.41, repro,
1999-12-04,13.98, 15.18, 24.36, 2.24, 2.07, 8.66, repro,
1999-12-05,12.55, 17.63, 27.47, 2.77, 2.29, 10.68, repro,
1999-12-06,13.02, 17.62, 32.44, 2.43, 2.28, 10.09, repro,
1999-12-07,13.51, 16.39, 36.58, 2.40, 2.08, 9.47, repro,
1999-12-08,12.61, 16.13, 32.87, 2.81, 2.49, 10.73, repro,
1999-12-09,14.33, 17.99, 32.04, 2.24, 2.14, 8.83, repro,
1999-12-10,14.73, 15.39, 27.65, 2.08, 1.87, 8.16, repro,
1999-12-11,16.96, 14.55, 25.11, 2.22, 2.11, 8.96, repro,
1999-12-12,13.51, 16.70, 27.96, 2.31, 2.15, 9.23, repro,
1999-12-13,13.00, 15.69, 29.71, 2.37, 2.36, 9.40, repro,
1999-12-14,12.55, 15.31, 28.49, 2.41, 2.08, 9.15, repro,
1999-12-15,14.20, 16.37, 25.78, 2.37, 2.12, 9.78, repro,
1999-12-16,12.69, 15.99, 32.23, 2.31, 2.02, 9.00, repro,
1999-12-17,15.02, 17.24, 26.59, 2.33, 2.11, 9.12, repro,
1999-12-18,12.29, 16.45, 29.79, 2.59, 2.30, 10.18, repro,
1999-12-19,15.04, 16.78, 27.25, 2.25, 2.00, 8.86, repro,
1999-12-20,15.09, 15.47, 29.10, 2.30, 2.09, 9.10, repro,
1999-12-21,15.07, 16.55, 29.92, 2.36, 1.96, 9.17, repro,
1999-12-22,16.04, 17.28, 22.96, 2.32, 2.01, 9.19, repro,
1999-12-23,14.83, 15.64, 25.19, 2.32, 2.19, 9.17, repro,
1999-12-24,14.14, 17.01, 18.28, 2.43, 2.29, 10.17, repro,
1999-12-25,15.35, 16.78, 16.64, 2.12, 1.96, 8.50, repro,
1999-12-26,15.05, 16.40, 24.86, 2.19, 2.07, 9.16, repro,
1999-12-27,12.54, 17.46, 15.38, 2.32, 2.09, 9.61, repro,
1999-12-28,15.34, 16.80, 19.48, 2.31, 1.92, 9.29, repro,
1999-12-29,14.49, 16.98, 19.55, 2.21, 1.93, 8.64, repro,
1999-12-30,14.62, 17.18, 23.79, 2.25, 2.01, 9.45, repro,
1999-12-31,17.55, 17.44, 25.72, 2.27, 1.99, 9.32, repro,
2000-01-01,13.28, 15.96, 26.34, 2.26, 1.97, 9.06, repro,
2000-01-02,15.16, 17.16, 31.80, 2.01, 1.81, 7.90, repro,
2000-01-03,15.52, 16.95, 23.03, 2.07, 1.82, 8.22, repro,
2000-01-04,15.11, 17.08, 19.59, 2.17, 1.83, 8.59, repro,
2000-01-05,15.42, 17.30, 19.92, 2.15, 1.86, 8.63, repro,
2000-01-06,14.94, 17.05, 15.98, 2.07, 1.80, 8.12, repro,
2000-01-07,14.92, 18.01, 12.61, 2.22, 1.85, 8.73, repro,
2000-01-08,14.43, 16.70, 20.92, 1.99, 1.74, 7.72, repro,
2000-01-09,13.67, 17.98, 24.61, 2.02, 1.76, 7.86, repro,
2000-01-10,2.16, 86.94, 88.40, 77.59, 490.02, 437.67, repro,
2000-01-11,14.62, 17.25, 20.04, 2.08, 1.82, 8.25, repro,
2000-01-12,15.09, 18.93, 21.77, 2.18, 1.94, 8.83, repro,
2000-01-13,14.97, 17.25, 15.64, 2.26, 1.94, 9.41, repro,
2000-01-14,14.11, 16.54, 14.59, 2.26, 1.97, 9.38, repro,
2000-01-15,14.91, 16.63, 20.95, 2.18, 1.94, 9.10, repro,
2000-01-16,11.67, 15.00, 19.45, 2.01, 1.78, 8.01, repro,
2000-01-17,12.13, 16.34, 22.68, 2.15, 1.87, 8.73, repro,
2000-01-18,14.90, 17.43, 20.78, 2.10, 1.81, 8.32, repro,
2000-01-19,14.50, 16.01, 26.58, 2.09, 1.82, 8.37, repro,
2000-01-20,15.10, 17.06, 25.22, 2.17, 1.85, 8.81, repro,
2000-01-21,15.17, 16.99, 31.44, 2.02, 1.83, 8.10, repro,
2000-01-22,14.81, 16.04, 35.08, 2.19, 1.88, 8.74, repro,
2000-01-23,17.17, 16.71, 29.59, 2.15, 1.89, 8.76, repro,
2000-01-24,18.40, 17.56, 30.40, 2.05, 1.77, 8.13, repro,
2000-01-25,14.95, 15.19, 21.74, 2.06, 1.78, 8.22, repro,
2000-01-26,14.80, 16.97, 33.01, 2.14, 1.79, 8.46, repro,
2000-01-27,19.45, 17.91, 21.26, 2.43, 1.98, 9.20, repro,
2000-01-28,15.15, 16.23, 31.35, 2.06, 1.79, 8.18, repro,
2000-01-29,15.26, 17.36, 22.52, 2.21, 1.87, 8.90, repro,
2000-01-30,15.43, 18.15, 21.92, 2.15, 1.82, 8.73, repro,
2000-01-31,17.87, 16.48, 27.09, 2.28, 1.84, 9.02, repro,
2000-02-01,15.44, 17.35, 14.60, 2.31, 1.92, 9.35, repro,
2000-02-02,16.42, 17.54, 19.19, 2.25, 1.83, 9.02, repro,
2000-02-03,16.34, 17.17, 23.63, 2.31, 1.90, 9.35, repro,
2000-02-04,16.72, 19.27, 30.86, 2.09, 1.90, 8.70, repro,
2000-02-05,14.34, 17.86, 25.67, 2.13, 1.91, 8.71, repro,
2000-02-06,15.88, 18.01, 27.12, 2.01, 1.81, 7.97, repro,
2000-02-07,15.30, 17.87, 18.56, 2.25, 1.89, 8.81, repro,
2000-02-08,15.97, 18.17, 23.88, 2.10, 1.89, 8.64, repro,
2000-02-09,15.68, 18.55, 24.68, 2.11, 1.88, 8.47, repro,
2000-02-10,15.94, 17.82, 18.78, 2.03, 1.81, 7.95, repro,
2000-02-11,15.41, 18.24, 17.86, 1.98, 1.74, 7.76, repro,
2000-02-12,16.86, 15.21, 15.96, 2.02, 1.76, 7.94, repro,
2000-02-13,16.18, 16.07, 29.46, 1.97, 1.75, 7.81, repro,
2000-02-14,15.35, 18.63, 24.55, 2.01, 1.76, 7.91, repro,
2000-02-15,17.10, 17.26, 21.62, 2.03, 1.75, 7.98, repro,
2000-02-16,14.03, 16.06, 16.68, 2.03, 1.77, 8.02, repro,
2000-02-17,15.75, 17.64, 26.29, 1.97, 1.74, 7.78, repro,
2000-02-18,15.43, 18.16, 14.70, 2.01, 1.75, 7.85, repro,
2000-02-19,16.25, 16.55, 21.27, 2.02, 1.74, 7.86, repro,
2000-02-20,14.21, 16.78, 20.07, 2.08, 1.77, 8.10, repro,
2000-02-21,13.19, 17.43, 7.10, 2.10, 1.81, 8.23, repro,
2000-02-22,17.08, 17.75, 18.96, 2.05, 1.76, 7.98, repro,
2000-02-23,14.65, 17.41, 17.46, 2.05, 1.81, 8.13, repro,
2000-02-24,16.10, 17.90, 17.37, 2.02, 1.80, 7.88, repro,
2000-02-25,16.76, 18.36, 25.22, 1.99, 1.72, 7.72, repro,
2000-02-26,16.04, 17.88, 25.47, 2.18, 1.99, 8.45, repro,
2000-02-27,14.60, 18.09, 19.34, 2.01, 1.73, 7.85, repro,
2000-02-28,15.76, 18.82, 20.35, 2.07, 1.77, 8.14, repro,
2000-02-29,15.64, 17.39, 20.70, 2.29, 1.91, 9.24, repro,
2000-03-01,14.93, 16.51, 22.33, 2.46, 2.41, 10.03, repro,
2000-03-02,16.42, 18.04, 27.94, 2.24, 2.05, 8.80, repro,
2000-03-03,14.51, 17.80, 18.07, 2.21, 1.92, 9.01, repro,
2000-03-04,16.29, 17.83, 23.33, 2.20, 1.88, 8.59, repro,
2000-03-05,15.03, 18.51, 21.69, 2.07, 1.76, 8.00, repro,
2000-03-06,13.06, 16.56, 22.68, 2.16, 1.87, 8.66, repro,
2000-03-07,18.16, 17.26, 24.67, 2.28, 2.02, 8.96, repro,
2000-03-08,16.97, 19.30, 23.57, 2.18, 1.86, 8.73, repro,
2000-03-09,16.27, 17.08, 16.83, 2.27, 1.91, 8.99, repro,
2000-03-10,16.44, 18.49, 14.18, 2.35, 2.00, 9.06, repro,
2000-03-11,17.08, 17.43, 15.62, 2.19, 1.88, 8.55, repro,
2000-03-12,16.90, 17.57, 18.12, 2.43, 2.05, 9.72, repro,
2000-03-13,16.01, 16.48, 15.97, 2.55, 2.22, 10.25, repro,
2000-03-14,16.61, 17.20, 20.77, 2.27, 2.02, 9.19, repro,
2000-03-15,16.19, 16.48, 23.81, 2.17, 1.88, 8.50, repro,
2000-03-16,17.95, 17.48, 25.29, 2.18, 1.87, 8.76, repro,
2000-03-17,18.10, 17.50, 22.54, 2.22, 1.93, 8.91, repro,
2000-03-18,17.20, 17.27, 18.27, 2.16, 1.87, 8.41, repro,
2000-03-19,17.00, 17.59, 20.20, 2.12, 1.80, 8.19, repro,
2000-03-20,19.30, 18.60, 24.35, 2.37, 1.96, 9.37, repro,
2000-03-21,18.66, 18.57, 18.50, 2.24, 1.85, 8.59, repro,
2000-03-22,17.83, 17.96, 19.25, 2.19, 1.89, 8.58, repro,
2000-03-23,18.34, 17.10, 24.16, 2.21, 1.89, 8.62, repro,
2000-03-24,16.45, 17.97, 18.44, 2.24, 1.93, 8.68, repro,
2000-03-25,16.99, 18.12, 24.89, 2.03, 1.76, 7.99, repro,
2000-03-26,17.84, 17.88, 21.98, 2.21, 1.85, 8.50, repro,
2000-03-27,17.97, 17.18, 18.45, 2.30, 1.83, 8.90, repro,
2000-03-28,16.41, 18.76, 32.02, 2.14, 1.75, 8.17, repro,
2000-03-29,17.11, 18.08, 27.33, 2.17, 1.77, 8.36, repro,
2000-03-30,15.64, 18.77, 18.94, 2.14, 1.75, 8.20, repro,
2000-03-31,19.24, 19.04, 21.94, 2.19, 1.86, 8.65, repro,
2000-04-01,18.96, 19.19, 25.64, 2.21, 1.84, 8.59, repro,
2000-04-02,17.98, 17.62, 28.56, 2.17, 1.82, 8.49, repro,
2000-04-03,17.06, 17.84, 19.82, 2.11, 1.74, 8.09, repro,
2000-04-04,18.44, 19.94, 23.60, 2.12, 1.74, 8.06, repro,
2000-04-05,18.48, 18.75, 25.02, 2.13, 1.76, 8.21, repro,
2000-04-06,18.72, 18.35, 26.88, 2.20, 1.81, 8.44, repro,
2000-04-07,18.03, 18.22, 23.33, 2.29, 1.82, 8.78, repro,
2000-04-08,16.48, 18.60, 18.75, 2.13, 1.81, 8.36, repro,
2000-04-09,16.61, 19.98, 32.16, 2.09, 1.77, 8.17, repro,
2000-04-10,17.85, 18.83, 19.55, 2.06, 1.78, 8.19, repro,
2000-04-11,18.63, 18.60, 19.49, 2.08, 1.74, 8.16, repro,
2000-04-12,17.47, 18.55, 23.74, 2.17, 1.81, 8.65, repro,
2000-04-13,16.34, 18.31, 20.90, 2.14, 1.81, 8.53, repro,
2000-04-14,16.52, 17.46, 17.57, 2.12, 1.74, 8.24, repro,
2000-04-15,19.02, 17.61, 26.49, 2.08, 1.81, 8.16, repro,
2000-04-16,18.01, 18.47, 24.70, 2.06, 1.75, 8.15, repro,
2000-04-17,14.10, 17.19, 29.35, 2.13, 1.82, 8.31, repro,
2000-04-18,15.80, 17.04, 32.49, 2.16, 1.91, 8.51, repro,
2000-04-19,17.75, 18.38, 27.60, 2.09, 1.79, 8.34, repro,